Year,Month,Day,Hour,Minute,Value (Times are PST for temperature in C)
2024,05,03,00,00,8.70
2024,05,03,00,01,8.70
2024,05,03,00,02,8.70
2024,05,03,00,03,8.70
2024,05,03,00,04,8.70
2024,05,03,00,05,8.80
2024,05,03,00,06,8.80
2024,05,03,00,07,8.90
2024,05,03,00,08,8.90
2024,05,03,00,09,8.90
2024,05,03,00,10,9.00
2024,05,03,00,11,9.00
2024,05,03,00,12,9.00
2024,05,03,00,13,9.10
2024,05,03,00,14,9.20
2024,05,03,00,15,9.20
2024,05,03,00,16,9.20
2024,05,03,00,17,9.30
2024,05,03,00,18,9.40
2024,05,03,00,19,9.40
2024,05,03,00,20,9.50
2024,05,03,00,21,9.50
2024,05,03,00,22,9.50
2024,05,03,00,23,9.60
2024,05,03,00,24,9.60
2024,05,03,00,25,9.60
2024,05,03,00,26,9.60
2024,05,03,00,27,9.60
2024,05,03,00,28,9.60
2024,05,03,00,29,9.60
2024,05,03,00,30,9.50
2024,05,03,00,31,9.50
2024,05,03,00,32,9.50
2024,05,03,00,33,9.50
2024,05,03,00,34,9.40
2024,05,03,00,35,9.40
2024,05,03,00,36,9.30
2024,05,03,00,37,9.30
2024,05,03,00,38,9.30
2024,05,03,00,39,9.20
2024,05,03,00,40,9.20
2024,05,03,00,41,9.20
2024,05,03,00,42,9.20
2024,05,03,00,43,9.10
2024,05,03,00,44,9.10
2024,05,03,00,45,9.10
2024,05,03,00,46,9.00
2024,05,03,00,47,9.00
2024,05,03,00,48,9.00
2024,05,03,00,49,9.00
2024,05,03,00,50,8.90
2024,05,03,00,51,8.90
2024,05,03,00,52,8.90
2024,05,03,00,53,8.90
2024,05,03,00,54,8.80
2024,05,03,00,55,8.80
2024,05,03,00,56,8.70
2024,05,03,00,57,8.70
2024,05,03,00,58,8.70
2024,05,03,00,59,8.70
2024,05,03,01,00,8.70
2024,05,03,01,01,8.70
2024,05,03,01,02,8.60
2024,05,03,01,03,8.60
2024,05,03,01,04,8.50
2024,05,03,01,05,8.50
2024,05,03,01,06,8.50
2024,05,03,01,07,8.40
2024,05,03,01,08,8.40
2024,05,03,01,09,8.40
2024,05,03,01,10,8.30
2024,05,03,01,11,8.30
2024,05,03,01,12,8.30
2024,05,03,01,13,8.20
2024,05,03,01,14,8.20
2024,05,03,01,15,8.20
2024,05,03,01,16,8.20
2024,05,03,01,17,8.10
2024,05,03,01,18,8.10
2024,05,03,01,19,8.10
2024,05,03,01,20,8.00
2024,05,03,01,21,8.00
2024,05,03,01,22,8.00
2024,05,03,01,23,7.90
2024,05,03,01,24,7.90
2024,05,03,01,25,7.80
2024,05,03,01,26,7.80
2024,05,03,01,27,7.80
2024,05,03,01,28,7.80
2024,05,03,01,29,7.70
2024,05,03,01,30,7.70
2024,05,03,01,31,7.70
2024,05,03,01,32,7.60
2024,05,03,01,33,7.60
2024,05,03,01,34,7.60
2024,05,03,01,35,7.60
2024,05,03,01,36,7.60
2024,05,03,01,37,7.50
2024,05,03,01,38,7.50
2024,05,03,01,39,7.50
2024,05,03,01,40,7.50
2024,05,03,01,41,7.50
2024,05,03,01,42,7.50
2024,05,03,01,43,7.40
2024,05,03,01,44,7.40
2024,05,03,01,45,7.40
2024,05,03,01,46,7.40
2024,05,03,01,47,7.30
2024,05,03,01,48,7.30
2024,05,03,01,49,7.30
2024,05,03,01,50,7.30
2024,05,03,01,51,7.30
2024,05,03,01,52,7.30
2024,05,03,01,53,7.30
2024,05,03,01,54,7.30
2024,05,03,01,55,7.20
2024,05,03,01,56,7.20
2024,05,03,01,57,7.20
2024,05,03,01,58,7.30
2024,05,03,01,59,7.30
2024,05,03,02,00,7.30
2024,05,03,02,01,7.30
2024,05,03,02,02,7.30
2024,05,03,02,03,7.30
2024,05,03,02,04,7.30
2024,05,03,02,05,7.30
2024,05,03,02,06,7.30
2024,05,03,02,07,7.30
2024,05,03,02,08,7.30
2024,05,03,02,09,7.30
2024,05,03,02,10,7.20
2024,05,03,02,11,7.20
2024,05,03,02,12,7.20
2024,05,03,02,13,7.10
2024,05,03,02,14,7.10
2024,05,03,02,15,7.10
2024,05,03,02,16,7.10
2024,05,03,02,17,7.00
2024,05,03,02,18,7.00
2024,05,03,02,19,7.00
2024,05,03,02,20,7.00
2024,05,03,02,21,6.90
2024,05,03,02,22,6.90
2024,05,03,02,23,6.90
2024,05,03,02,24,6.80
2024,05,03,02,25,6.80
2024,05,03,02,26,6.80
2024,05,03,02,27,6.80
2024,05,03,02,28,6.80
2024,05,03,02,29,6.70
2024,05,03,02,30,6.70
2024,05,03,02,31,6.70
2024,05,03,02,32,6.70
2024,05,03,02,33,6.60
2024,05,03,02,34,6.60
2024,05,03,02,35,6.60
2024,05,03,02,36,6.60
2024,05,03,02,37,6.60
2024,05,03,02,38,6.60
2024,05,03,02,39,6.60
2024,05,03,02,40,6.60
2024,05,03,02,41,6.60
2024,05,03,02,42,6.60
2024,05,03,02,43,6.60
2024,05,03,02,44,6.60
2024,05,03,02,45,6.60
2024,05,03,02,46,6.60
2024,05,03,02,47,6.60
2024,05,03,02,48,6.60
2024,05,03,02,49,6.50
2024,05,03,02,50,6.40
2024,05,03,02,51,6.40
2024,05,03,02,52,6.40
2024,05,03,02,53,6.40
2024,05,03,02,54,6.40
2024,05,03,02,55,6.40
2024,05,03,02,56,6.40
2024,05,03,02,57,6.40
2024,05,03,02,58,6.40
2024,05,03,02,59,6.40
2024,05,03,03,00,6.40
2024,05,03,03,01,6.30
2024,05,03,03,02,6.30
2024,05,03,03,03,6.30
2024,05,03,03,04,6.30
2024,05,03,03,05,6.20
2024,05,03,03,06,6.20
2024,05,03,03,07,6.20
2024,05,03,03,08,6.20
2024,05,03,03,09,6.20
2024,05,03,03,10,6.20
2024,05,03,03,11,6.20
2024,05,03,03,12,6.20
2024,05,03,03,13,6.20
2024,05,03,03,14,6.10
2024,05,03,03,15,6.10
2024,05,03,03,16,6.10
2024,05,03,03,17,6.00
2024,05,03,03,18,6.00
2024,05,03,03,19,6.00
2024,05,03,03,20,5.90
2024,05,03,03,21,5.90
2024,05,03,03,22,5.90
2024,05,03,03,23,5.90
2024,05,03,03,24,5.90
2024,05,03,03,25,5.80
2024,05,03,03,26,5.80
2024,05,03,03,27,5.80
2024,05,03,03,28,5.80
2024,05,03,03,29,5.80
2024,05,03,03,30,5.80
2024,05,03,03,31,5.70
2024,05,03,03,32,5.70
2024,05,03,03,33,5.70
2024,05,03,03,34,5.70
2024,05,03,03,35,5.70
2024,05,03,03,36,5.70
2024,05,03,03,37,5.70
2024,05,03,03,38,5.60
2024,05,03,03,39,5.60
2024,05,03,03,40,5.60
2024,05,03,03,41,5.50
2024,05,03,03,42,5.50
2024,05,03,03,43,5.50
2024,05,03,03,44,5.50
2024,05,03,03,45,5.50
2024,05,03,03,46,5.50
2024,05,03,03,47,5.50
2024,05,03,03,48,5.50
2024,05,03,03,49,5.50
2024,05,03,03,50,5.50
2024,05,03,03,51,5.50
2024,05,03,03,52,5.40
2024,05,03,03,53,5.40
2024,05,03,03,54,5.40
2024,05,03,03,55,5.40
2024,05,03,03,56,5.40
2024,05,03,03,57,5.40
2024,05,03,03,58,5.40
2024,05,03,03,59,5.40
2024,05,03,04,00,5.40
2024,05,03,04,01,5.40
2024,05,03,04,02,5.40
2024,05,03,04,03,5.40
2024,05,03,04,04,5.40
2024,05,03,04,05,5.40
2024,05,03,04,06,5.30
2024,05,03,04,07,5.30
2024,05,03,04,08,5.30
2024,05,03,04,09,5.30
2024,05,03,04,10,5.30
2024,05,03,04,11,5.30
2024,05,03,04,12,5.30
2024,05,03,04,13,5.30
2024,05,03,04,14,5.30
2024,05,03,04,15,5.30
2024,05,03,04,16,5.30
2024,05,03,04,17,5.30
2024,05,03,04,18,5.30
2024,05,03,04,19,5.30
2024,05,03,04,20,5.30
2024,05,03,04,21,5.30
2024,05,03,04,22,5.30
2024,05,03,04,23,5.30
2024,05,03,04,24,5.20
2024,05,03,04,25,5.20
2024,05,03,04,26,5.20
2024,05,03,04,27,5.20
2024,05,03,04,28,5.20
2024,05,03,04,29,5.20
2024,05,03,04,30,5.10
2024,05,03,04,31,5.10
2024,05,03,04,32,5.10
2024,05,03,04,33,5.10
2024,05,03,04,34,5.10
2024,05,03,04,35,5.10
2024,05,03,04,36,5.10
2024,05,03,04,37,5.10
2024,05,03,04,38,5.10
2024,05,03,04,39,5.10
2024,05,03,04,40,5.10
2024,05,03,04,41,5.10
2024,05,03,04,42,5.10
2024,05,03,04,43,5.10
2024,05,03,04,44,5.00
2024,05,03,04,45,4.90
2024,05,03,04,46,4.90
2024,05,03,04,47,4.90
2024,05,03,04,48,4.90
2024,05,03,04,49,4.90
2024,05,03,04,50,4.90
2024,05,03,04,51,4.90
2024,05,03,04,52,4.90
2024,05,03,04,53,4.90
2024,05,03,04,54,4.90
2024,05,03,04,55,4.90
2024,05,03,04,56,4.90
2024,05,03,04,57,4.90
2024,05,03,04,58,4.90
2024,05,03,04,59,4.90
2024,05,03,05,00,4.80
2024,05,03,05,01,4.80
2024,05,03,05,02,4.80
2024,05,03,05,03,4.80
2024,05,03,05,04,4.80
2024,05,03,05,05,4.70
2024,05,03,05,06,4.70
2024,05,03,05,07,4.70
2024,05,03,05,08,4.70
2024,05,03,05,09,4.70
2024,05,03,05,10,4.60
2024,05,03,05,11,4.60
2024,05,03,05,12,4.60
2024,05,03,05,13,4.60
2024,05,03,05,14,4.60
2024,05,03,05,15,4.60
2024,05,03,05,16,4.50
2024,05,03,05,17,4.50
2024,05,03,05,18,4.50
2024,05,03,05,19,4.50
2024,05,03,05,20,4.50
2024,05,03,05,21,4.50
2024,05,03,05,22,4.50
2024,05,03,05,23,4.50
2024,05,03,05,24,4.50
2024,05,03,05,25,4.50
2024,05,03,05,26,4.50
2024,05,03,05,27,4.40
2024,05,03,05,28,4.40
2024,05,03,05,29,4.40
2024,05,03,05,30,4.40
2024,05,03,05,31,4.40
2024,05,03,05,32,4.40
2024,05,03,05,33,4.40
2024,05,03,05,34,4.40
2024,05,03,05,35,4.40
2024,05,03,05,36,4.40
2024,05,03,05,37,4.40
2024,05,03,05,38,4.40
2024,05,03,05,39,4.30
2024,05,03,05,40,4.30
2024,05,03,05,41,4.30
2024,05,03,05,42,4.30
2024,05,03,05,43,4.30
2024,05,03,05,44,4.30
2024,05,03,05,45,4.30
2024,05,03,05,46,4.30
2024,05,03,05,47,4.30
2024,05,03,05,48,4.30
2024,05,03,05,49,4.20
2024,05,03,05,50,4.20
2024,05,03,05,51,4.20
2024,05,03,05,52,4.20
2024,05,03,05,53,4.20
2024,05,03,05,54,4.20
2024,05,03,05,55,4.20
2024,05,03,05,56,4.20
2024,05,03,05,57,4.20
2024,05,03,05,58,4.20
2024,05,03,05,59,4.20
2024,05,03,06,00,4.20
2024,05,03,06,01,4.20
2024,05,03,06,02,4.20
2024,05,03,06,03,4.20
2024,05,03,06,04,4.20
2024,05,03,06,05,4.20
2024,05,03,06,06,4.20
2024,05,03,06,07,4.20
2024,05,03,06,08,4.20
2024,05,03,06,09,4.20
2024,05,03,06,10,4.20
2024,05,03,06,11,4.20
2024,05,03,06,12,4.20
2024,05,03,06,13,4.20
2024,05,03,06,14,4.20
2024,05,03,06,15,4.20
2024,05,03,06,16,4.20
2024,05,03,06,17,4.20
2024,05,03,06,18,4.20
2024,05,03,06,19,4.20
2024,05,03,06,20,4.20
2024,05,03,06,21,4.20
2024,05,03,06,22,4.20
2024,05,03,06,23,4.20
2024,05,03,06,24,4.30
2024,05,03,06,25,4.30
2024,05,03,06,26,4.40
2024,05,03,06,27,4.40
2024,05,03,06,28,4.50
2024,05,03,06,29,4.50
2024,05,03,06,30,4.60
2024,05,03,06,31,4.60
2024,05,03,06,32,4.60
2024,05,03,06,33,4.60
2024,05,03,06,34,4.60
2024,05,03,06,35,4.70
2024,05,03,06,36,4.70
2024,05,03,06,37,4.80
2024,05,03,06,38,4.80
2024,05,03,06,39,4.80
2024,05,03,06,40,4.90
2024,05,03,06,41,4.90
2024,05,03,06,42,4.90
2024,05,03,06,43,5.00
2024,05,03,06,44,5.10
2024,05,03,06,45,5.10
2024,05,03,06,46,5.10
2024,05,03,06,47,5.10
2024,05,03,06,48,5.20
2024,05,03,06,49,5.20
2024,05,03,06,50,5.20
2024,05,03,06,51,5.20
2024,05,03,06,52,5.30
2024,05,03,06,53,5.30
2024,05,03,06,54,5.40
2024,05,03,06,55,5.40
2024,05,03,06,56,5.50
2024,05,03,06,57,5.50
2024,05,03,06,58,5.50
2024,05,03,06,59,5.60
2024,05,03,07,00,5.60
2024,05,03,07,01,5.70
2024,05,03,07,02,5.70
2024,05,03,07,03,5.70
2024,05,03,07,04,5.70
2024,05,03,07,05,5.80
2024,05,03,07,06,5.90
2024,05,03,07,07,5.90
2024,05,03,07,08,6.00
2024,05,03,07,09,6.10
2024,05,03,07,10,6.20
2024,05,03,07,11,6.20
2024,05,03,07,12,6.30
2024,05,03,07,13,6.40
2024,05,03,07,14,6.50
2024,05,03,07,15,6.60
2024,05,03,07,16,6.70
2024,05,03,07,17,6.80
2024,05,03,07,18,6.80
2024,05,03,07,19,6.90
2024,05,03,07,20,7.00
2024,05,03,07,21,7.10
2024,05,03,07,22,7.20
2024,05,03,07,23,7.30
2024,05,03,07,24,7.40
2024,05,03,07,25,7.50
2024,05,03,07,26,7.50
2024,05,03,07,27,7.60
2024,05,03,07,28,7.60
2024,05,03,07,29,7.70
2024,05,03,07,30,7.70
2024,05,03,07,31,7.80
2024,05,03,07,32,7.80
2024,05,03,07,33,7.80
2024,05,03,07,34,7.80
2024,05,03,07,35,7.90
2024,05,03,07,36,7.90
2024,05,03,07,37,7.90
2024,05,03,07,38,7.90
2024,05,03,07,39,8.00
2024,05,03,07,40,8.00
2024,05,03,07,41,8.00
2024,05,03,07,42,8.00
2024,05,03,07,43,8.10
2024,05,03,07,44,8.10
2024,05,03,07,45,8.20
2024,05,03,07,46,8.20
2024,05,03,07,47,8.30
2024,05,03,07,48,8.40
2024,05,03,07,49,8.60
2024,05,03,07,50,8.70
2024,05,03,07,51,8.80
2024,05,03,07,52,8.90
2024,05,03,07,53,9.00
2024,05,03,07,54,9.10
2024,05,03,07,55,9.30
2024,05,03,07,56,9.40
2024,05,03,07,57,9.50
2024,05,03,07,58,9.60
2024,05,03,07,59,9.70
2024,05,03,08,00,9.70
2024,05,03,08,01,9.80
2024,05,03,08,02,9.80
2024,05,03,08,03,9.90
2024,05,03,08,04,9.90
2024,05,03,08,05,9.90
2024,05,03,08,06,10.00
2024,05,03,08,07,10.10
2024,05,03,08,08,10.10
2024,05,03,08,09,10.10
2024,05,03,08,10,10.10
2024,05,03,08,11,10.10
2024,05,03,08,12,10.20
2024,05,03,08,13,10.20
2024,05,03,08,14,10.30
2024,05,03,08,15,10.30
2024,05,03,08,16,10.40
2024,05,03,08,17,10.50
2024,05,03,08,18,10.60
2024,05,03,08,19,10.60
2024,05,03,08,20,10.70
2024,05,03,08,21,10.80
2024,05,03,08,22,10.80
2024,05,03,08,23,10.90
2024,05,03,08,24,10.90
2024,05,03,08,25,10.90
2024,05,03,08,26,10.90
2024,05,03,08,27,11.00
2024,05,03,08,28,11.00
2024,05,03,08,29,11.00
2024,05,03,08,30,11.10
2024,05,03,08,31,11.10
2024,05,03,08,32,11.10
2024,05,03,08,33,11.20
2024,05,03,08,34,11.20
2024,05,03,08,35,11.30
2024,05,03,08,36,11.40
2024,05,03,08,37,11.40
2024,05,03,08,38,11.40
2024,05,03,08,39,11.40
2024,05,03,08,40,11.40
2024,05,03,08,41,11.40
2024,05,03,08,42,11.40
2024,05,03,08,43,11.50
2024,05,03,08,44,11.60
2024,05,03,08,45,11.60
2024,05,03,08,46,11.60
2024,05,03,08,47,11.60
2024,05,03,08,48,11.60
2024,05,03,08,49,11.60
2024,05,03,08,50,11.60
2024,05,03,08,51,11.50
2024,05,03,08,52,11.40
2024,05,03,08,53,11.50
2024,05,03,08,54,11.60
2024,05,03,08,55,11.60
2024,05,03,08,56,11.60
2024,05,03,08,57,11.70
2024,05,03,08,58,11.80
2024,05,03,08,59,11.90
2024,05,03,09,00,12.00
2024,05,03,09,01,12.10
2024,05,03,09,02,12.10
2024,05,03,09,03,12.20
2024,05,03,09,04,12.20
2024,05,03,09,05,12.30
2024,05,03,09,06,12.30
2024,05,03,09,07,12.20
2024,05,03,09,08,12.20
2024,05,03,09,09,12.20
2024,05,03,09,10,12.20
2024,05,03,09,11,12.20
2024,05,03,09,12,12.20
2024,05,03,09,13,12.10
2024,05,03,09,14,12.20
2024,05,03,09,15,12.20
2024,05,03,09,16,12.30
2024,05,03,09,17,12.30
2024,05,03,09,18,12.30
2024,05,03,09,19,12.40
2024,05,03,09,20,12.50
2024,05,03,09,21,12.50
2024,05,03,09,22,12.40
2024,05,03,09,23,12.40
2024,05,03,09,24,12.40
2024,05,03,09,25,12.30
2024,05,03,09,26,12.20
2024,05,03,09,27,12.20
2024,05,03,09,28,12.10
2024,05,03,09,29,12.10
2024,05,03,09,30,12.10
2024,05,03,09,31,12.10
2024,05,03,09,32,12.10
2024,05,03,09,33,12.20
2024,05,03,09,34,12.20
2024,05,03,09,35,12.30
2024,05,03,09,36,12.30
2024,05,03,09,37,12.30
2024,05,03,09,38,12.30
2024,05,03,09,39,12.30
2024,05,03,09,40,12.40
2024,05,03,09,41,12.50
2024,05,03,09,42,12.50
2024,05,03,09,43,12.50
2024,05,03,09,44,12.50
2024,05,03,09,45,12.60
2024,05,03,09,46,12.70
2024,05,03,09,47,12.70
2024,05,03,09,48,12.70
2024,05,03,09,49,12.70
2024,05,03,09,50,12.70
2024,05,03,09,51,12.70
2024,05,03,09,52,12.80
2024,05,03,09,53,12.80
2024,05,03,09,54,12.80
2024,05,03,09,55,12.90
2024,05,03,09,56,12.90
2024,05,03,09,57,12.90
2024,05,03,09,58,12.90
2024,05,03,09,59,12.90
2024,05,03,10,00,12.80
2024,05,03,10,01,12.80
2024,05,03,10,02,12.80
2024,05,03,10,03,12.80
2024,05,03,10,04,12.80
2024,05,03,10,05,12.90
2024,05,03,10,06,13.00
2024,05,03,10,07,13.00
2024,05,03,10,08,13.10
2024,05,03,10,09,13.20
2024,05,03,10,10,13.20
2024,05,03,10,11,13.20
2024,05,03,10,12,13.30
2024,05,03,10,13,13.30
2024,05,03,10,14,13.40
2024,05,03,10,15,13.40
2024,05,03,10,16,13.50
2024,05,03,10,17,13.40
2024,05,03,10,18,13.40
2024,05,03,10,19,13.50
2024,05,03,10,20,13.50
2024,05,03,10,21,13.40
2024,05,03,10,22,13.30
2024,05,03,10,23,13.30
2024,05,03,10,24,13.30
2024,05,03,10,25,13.20
2024,05,03,10,26,13.10
2024,05,03,10,27,13.00
2024,05,03,10,28,12.90
2024,05,03,10,29,12.80
2024,05,03,10,30,12.80
2024,05,03,10,31,12.80
2024,05,03,10,32,12.80
2024,05,03,10,33,12.70
2024,05,03,10,34,12.70
2024,05,03,10,35,12.70
2024,05,03,10,36,12.70
2024,05,03,10,37,12.70
2024,05,03,10,38,12.80
2024,05,03,10,39,12.80
2024,05,03,10,40,13.00
2024,05,03,10,41,13.10
2024,05,03,10,42,13.20
2024,05,03,10,43,13.30
2024,05,03,10,44,13.40
2024,05,03,10,45,13.50
2024,05,03,10,46,13.60
2024,05,03,10,47,13.70
2024,05,03,10,48,13.90
2024,05,03,10,49,14.10
2024,05,03,10,50,14.30
2024,05,03,10,51,14.50
2024,05,03,10,52,14.60
2024,05,03,10,53,14.60
2024,05,03,10,54,14.60
2024,05,03,10,55,14.50
2024,05,03,10,56,14.50
2024,05,03,10,57,14.40
2024,05,03,10,58,14.30
2024,05,03,10,59,14.20
2024,05,03,11,00,14.20
2024,05,03,11,01,14.20
2024,05,03,11,02,14.20
2024,05,03,11,03,14.20
2024,05,03,11,04,14.30
2024,05,03,11,05,14.40
2024,05,03,11,06,14.50
2024,05,03,11,07,14.60
2024,05,03,11,08,14.70
2024,05,03,11,09,14.80
2024,05,03,11,10,14.80
2024,05,03,11,11,14.90
2024,05,03,11,12,14.90
2024,05,03,11,13,14.90
2024,05,03,11,14,14.90
2024,05,03,11,15,14.90
2024,05,03,11,16,14.90
2024,05,03,11,17,14.90
2024,05,03,11,18,14.90
2024,05,03,11,19,15.00
2024,05,03,11,20,15.10
2024,05,03,11,21,15.20
2024,05,03,11,22,15.20
2024,05,03,11,23,15.20
2024,05,03,11,24,15.20
2024,05,03,11,25,15.30
2024,05,03,11,26,15.40
2024,05,03,11,27,15.60
2024,05,03,11,28,15.70
2024,05,03,11,29,15.80
2024,05,03,11,30,15.80
2024,05,03,11,31,15.80
2024,05,03,11,32,15.80
2024,05,03,11,33,15.80
2024,05,03,11,34,15.80
2024,05,03,11,35,15.80
2024,05,03,11,36,15.80
2024,05,03,11,37,15.80
2024,05,03,11,38,15.80
2024,05,03,11,39,15.80
2024,05,03,11,40,15.90
2024,05,03,11,41,15.90
2024,05,03,11,42,15.90
2024,05,03,11,43,15.80
2024,05,03,11,44,15.70
2024,05,03,11,45,15.70
2024,05,03,11,46,15.70
2024,05,03,11,47,15.80
2024,05,03,11,48,15.80
2024,05,03,11,49,16.00
2024,05,03,11,50,16.10
2024,05,03,11,51,16.20
2024,05,03,11,52,16.40
2024,05,03,11,53,16.40
2024,05,03,11,54,16.40
2024,05,03,11,55,16.30
2024,05,03,11,56,16.20
2024,05,03,11,57,16.20
2024,05,03,11,58,16.20
2024,05,03,11,59,16.30
2024,05,03,12,00,16.30
2024,05,03,12,01,16.40
2024,05,03,12,02,16.50
2024,05,03,12,03,16.70
2024,05,03,12,04,16.80
2024,05,03,12,05,16.80
2024,05,03,12,06,16.70
2024,05,03,12,07,16.60
2024,05,03,12,08,16.40
2024,05,03,12,09,16.30
2024,05,03,12,10,16.20
2024,05,03,12,11,16.20
2024,05,03,12,12,16.30
2024,05,03,12,13,16.30
2024,05,03,12,14,16.40
2024,05,03,12,15,16.30
2024,05,03,12,16,16.30
2024,05,03,12,17,16.30
2024,05,03,12,18,16.30
2024,05,03,12,19,16.40
2024,05,03,12,20,16.40
2024,05,03,12,21,16.40
2024,05,03,12,22,16.40
2024,05,03,12,23,16.30
2024,05,03,12,24,16.30
2024,05,03,12,25,16.10
2024,05,03,12,26,16.10
2024,05,03,12,27,16.10
2024,05,03,12,28,16.20
2024,05,03,12,29,16.20
2024,05,03,12,30,16.30
2024,05,03,12,31,16.30
2024,05,03,12,32,16.40
2024,05,03,12,33,16.60
2024,05,03,12,34,16.70
2024,05,03,12,35,16.70
2024,05,03,12,36,16.60
2024,05,03,12,37,16.60
2024,05,03,12,38,16.70
2024,05,03,12,39,16.70
2024,05,03,12,40,16.80
2024,05,03,12,41,16.80
2024,05,03,12,42,16.80
2024,05,03,12,43,16.70
2024,05,03,12,44,16.70
2024,05,03,12,45,16.70
2024,05,03,12,46,16.60
2024,05,03,12,47,16.50
2024,05,03,12,48,16.40
2024,05,03,12,49,16.30
2024,05,03,12,50,16.30
2024,05,03,12,51,16.30
2024,05,03,12,52,16.30
2024,05,03,12,53,16.40
2024,05,03,12,54,16.50
2024,05,03,12,55,16.70
2024,05,03,12,56,16.70
2024,05,03,12,57,16.70
2024,05,03,12,58,16.80
2024,05,03,12,59,16.80
2024,05,03,13,00,16.80
2024,05,03,13,01,16.80
2024,05,03,13,02,16.80
2024,05,03,13,03,16.80
2024,05,03,13,04,16.70
2024,05,03,13,05,16.70
2024,05,03,13,06,16.70
2024,05,03,13,07,16.70
2024,05,03,13,08,16.70
2024,05,03,13,09,16.70
2024,05,03,13,10,16.70
2024,05,03,13,11,16.70
2024,05,03,13,12,16.70
2024,05,03,13,13,16.70
2024,05,03,13,14,16.80
2024,05,03,13,15,16.80
2024,05,03,13,16,16.90
2024,05,03,13,17,16.90
2024,05,03,13,18,17.00
2024,05,03,13,19,17.00
2024,05,03,13,20,17.00
2024,05,03,13,21,17.00
2024,05,03,13,22,17.00
2024,05,03,13,23,17.00
2024,05,03,13,24,16.90
2024,05,03,13,25,16.90
2024,05,03,13,26,16.90
2024,05,03,13,27,16.90
2024,05,03,13,28,16.90
2024,05,03,13,29,17.00
2024,05,03,13,30,17.00
2024,05,03,13,31,17.00
2024,05,03,13,32,17.00
2024,05,03,13,33,17.00
2024,05,03,13,34,17.00
2024,05,03,13,35,17.00
2024,05,03,13,36,17.10
2024,05,03,13,37,17.10
2024,05,03,13,38,17.20
2024,05,03,13,39,17.30
2024,05,03,13,40,17.30
2024,05,03,13,41,17.40
2024,05,03,13,42,17.50
2024,05,03,13,43,17.50
2024,05,03,13,44,17.50
2024,05,03,13,45,17.50
2024,05,03,13,46,17.50
2024,05,03,13,47,17.50
2024,05,03,13,48,17.40
2024,05,03,13,49,17.30
2024,05,03,13,50,17.30
2024,05,03,13,51,17.30
2024,05,03,13,52,17.20
2024,05,03,13,53,17.10
2024,05,03,13,54,17.00
2024,05,03,13,55,16.90
2024,05,03,13,56,16.90
2024,05,03,13,57,16.80
2024,05,03,13,58,16.90
2024,05,03,13,59,16.90
2024,05,03,14,00,16.90
2024,05,03,14,01,17.00
2024,05,03,14,02,17.10
2024,05,03,14,03,17.10
2024,05,03,14,04,17.20
2024,05,03,14,05,17.20
2024,05,03,14,06,17.20
2024,05,03,14,07,17.20
2024,05,03,14,08,17.20
2024,05,03,14,09,17.30
2024,05,03,14,10,17.30
2024,05,03,14,11,17.30
2024,05,03,14,12,17.20
2024,05,03,14,13,17.20
2024,05,03,14,14,17.20
2024,05,03,14,15,17.20
2024,05,03,14,16,17.30
2024,05,03,14,17,17.30
2024,05,03,14,18,17.20
2024,05,03,14,19,17.20
2024,05,03,14,20,17.10
2024,05,03,14,21,17.10
2024,05,03,14,22,17.20
2024,05,03,14,23,17.20
2024,05,03,14,24,17.20
2024,05,03,14,25,17.20
2024,05,03,14,26,17.30
2024,05,03,14,27,17.30
2024,05,03,14,28,17.40
2024,05,03,14,29,17.40
2024,05,03,14,30,17.30
2024,05,03,14,31,17.30
2024,05,03,14,32,17.40
2024,05,03,14,33,17.40
2024,05,03,14,34,17.40
2024,05,03,14,35,17.40
2024,05,03,14,36,17.40
2024,05,03,14,37,17.30
2024,05,03,14,38,17.30
2024,05,03,14,39,17.30
2024,05,03,14,40,17.40
2024,05,03,14,41,17.40
2024,05,03,14,42,17.30
2024,05,03,14,43,17.30
2024,05,03,14,44,17.40
2024,05,03,14,45,17.40
2024,05,03,14,46,17.40
2024,05,03,14,47,17.40
2024,05,03,14,48,17.40
2024,05,03,14,49,17.50
2024,05,03,14,50,17.50
2024,05,03,14,51,17.40
2024,05,03,14,52,17.30
2024,05,03,14,53,17.20
2024,05,03,14,54,17.20
2024,05,03,14,55,17.20
2024,05,03,14,56,17.10
2024,05,03,14,57,17.10
2024,05,03,14,58,17.00
2024,05,03,14,59,17.00
2024,05,03,15,00,16.90
2024,05,03,15,01,16.90
2024,05,03,15,02,16.90
2024,05,03,15,03,16.90
2024,05,03,15,04,17.00
2024,05,03,15,05,17.00
2024,05,03,15,06,17.10
2024,05,03,15,07,17.10
2024,05,03,15,08,17.10
2024,05,03,15,09,17.10
2024,05,03,15,10,17.10
2024,05,03,15,11,17.10
2024,05,03,15,12,17.10
2024,05,03,15,13,17.10
2024,05,03,15,14,17.10
2024,05,03,15,15,17.10
2024,05,03,15,16,17.10
2024,05,03,15,17,17.10
2024,05,03,15,18,17.00
2024,05,03,15,19,17.00
2024,05,03,15,20,17.00
2024,05,03,15,21,17.00
2024,05,03,15,22,16.90
2024,05,03,15,23,16.90
2024,05,03,15,24,16.90
2024,05,03,15,25,17.00
2024,05,03,15,26,17.00
2024,05,03,15,27,17.00
2024,05,03,15,28,17.00
2024,05,03,15,29,17.00
2024,05,03,15,30,17.00
2024,05,03,15,31,17.00
2024,05,03,15,32,17.00
2024,05,03,15,33,16.90
2024,05,03,15,34,16.90
2024,05,03,15,35,17.00
2024,05,03,15,36,17.00
2024,05,03,15,37,17.00
2024,05,03,15,38,17.10
2024,05,03,15,39,17.10
2024,05,03,15,40,17.10
2024,05,03,15,41,17.10
2024,05,03,15,42,17.00
2024,05,03,15,43,17.00
2024,05,03,15,44,16.90
2024,05,03,15,45,16.90
2024,05,03,15,46,16.90
2024,05,03,15,47,16.90
2024,05,03,15,48,16.90
2024,05,03,15,49,16.90
2024,05,03,15,50,16.90
2024,05,03,15,51,16.80
2024,05,03,15,52,16.80
2024,05,03,15,53,16.80
2024,05,03,15,54,16.80
2024,05,03,15,55,16.80
2024,05,03,15,56,16.80
2024,05,03,15,57,16.90
2024,05,03,15,58,16.90
2024,05,03,15,59,16.90
2024,05,03,16,00,16.90
2024,05,03,16,01,17.00
2024,05,03,16,02,17.00
2024,05,03,16,03,17.00
2024,05,03,16,04,17.10
2024,05,03,16,05,17.10
2024,05,03,16,06,17.10
2024,05,03,16,07,17.20
2024,05,03,16,08,17.30
2024,05,03,16,09,17.30
2024,05,03,16,10,17.30
2024,05,03,16,11,17.30
2024,05,03,16,12,17.30
2024,05,03,16,13,17.40
2024,05,03,16,14,17.40
2024,05,03,16,15,17.40
2024,05,03,16,16,17.50
2024,05,03,16,17,17.50
2024,05,03,16,18,17.50
2024,05,03,16,19,17.60
2024,05,03,16,20,17.60
2024,05,03,16,21,17.50
2024,05,03,16,22,17.50
2024,05,03,16,23,17.50
2024,05,03,16,24,17.50
2024,05,03,16,25,17.50
2024,05,03,16,26,17.50
2024,05,03,16,27,17.40
2024,05,03,16,28,17.30
2024,05,03,16,29,17.30
2024,05,03,16,30,17.30
2024,05,03,16,31,17.30
2024,05,03,16,32,17.30
2024,05,03,16,33,17.20
2024,05,03,16,34,17.20
2024,05,03,16,35,17.20
2024,05,03,16,36,17.10
2024,05,03,16,37,17.20
2024,05,03,16,38,17.20
2024,05,03,16,39,17.10
2024,05,03,16,40,17.10
2024,05,03,16,41,17.10
2024,05,03,16,42,17.10
2024,05,03,16,43,17.10
2024,05,03,16,44,17.10
2024,05,03,16,45,17.20
2024,05,03,16,46,17.20
2024,05,03,16,47,17.20
2024,05,03,16,48,17.20
2024,05,03,16,49,17.20
2024,05,03,16,50,17.20
2024,05,03,16,51,17.20
2024,05,03,16,52,17.20
2024,05,03,16,53,17.30
2024,05,03,16,54,17.30
2024,05,03,16,55,17.30
2024,05,03,16,56,17.30
2024,05,03,16,57,17.30
2024,05,03,16,58,17.30
2024,05,03,16,59,17.30
2024,05,03,17,00,17.30
2024,05,03,17,01,17.30
2024,05,03,17,02,17.30
2024,05,03,17,03,17.30
2024,05,03,17,04,17.30
2024,05,03,17,05,17.30
2024,05,03,17,06,17.20
2024,05,03,17,07,17.20
2024,05,03,17,08,17.10
2024,05,03,17,09,17.10
2024,05,03,17,10,17.10
2024,05,03,17,11,17.10
2024,05,03,17,12,17.10
2024,05,03,17,13,17.10
2024,05,03,17,14,17.10
2024,05,03,17,15,17.10
2024,05,03,17,16,17.20
2024,05,03,17,17,17.20
2024,05,03,17,18,17.20
2024,05,03,17,19,17.20
2024,05,03,17,20,17.30
2024,05,03,17,21,17.30
2024,05,03,17,22,17.30
2024,05,03,17,23,17.30
2024,05,03,17,24,17.30
2024,05,03,17,25,17.30
2024,05,03,17,26,17.30
2024,05,03,17,27,17.30
2024,05,03,17,28,17.30
2024,05,03,17,29,17.30
2024,05,03,17,30,17.30
2024,05,03,17,31,17.30
2024,05,03,17,32,17.30
2024,05,03,17,33,17.30
2024,05,03,17,34,17.30
2024,05,03,17,35,17.30
2024,05,03,17,36,17.20
2024,05,03,17,37,17.20
2024,05,03,17,38,17.10
2024,05,03,17,39,17.10
2024,05,03,17,40,17.00